Cosmos 2098 Rocket - Orbit

View from above orbital plane
View from above orbital plane
View from above satellite
View from above satellite

Ground track
Ground track

The orbit data is extracted from the following two-line orbital elements,

1 20775U 90078B   13141.54422824  .00008361  00000-0  47509-3 0  1422
2 20775 082.9348 172.1534 0670140 189.1487 322.7978 14.10891915137262
Epoch (UTC): 21 May 2013 13:03:41
Eccentricity: 0.0670140
inclination: 82.9348°
perigee height: 371 km
apogee height: 1341 km
right ascension of ascending node: 172.1534°
argument of perigee: 189.1487°
revolutions per day: 14.10891915
mean anomaly at epoch: 322.7978°
orbit number at epoch: 13726

The dashed part of the orbit path shows where the satellite is in the earth's shadow,  

Developed and maintained by Chris Peat, Heavens-Above GmbH. Please read the updated FAQ before sending e-mail. Imprint. DLR